Station SAPF1 - 8726520 - St. Petersburg, Tampa Bay, FL Image indicating link to RSS feed of recent meteorological observations for station SAPF1


Conditions at SAPF1 as of
(9:18 am EDT)
1318 GMT on 07/15/2024:
     

Click on the graph icon in the table below to see a time series plot of the last five days of that observation.

5-day plot - Wind Direction Wind Direction (WDIR): E ( 100 deg true )
5-day plot - Wind Speed Wind Speed (WSPD): 5.1 kts
5-day plot - Wind Gust Wind Gust (GST): 7.0 kts
5-day plot - Atmospheric Pressure Atmospheric Pressure (PRES):30.13 in
5-day plot - Air Temperature Air Temperature (ATMP): 83.8 °F
5-day plot - Water Temperature Water Temperature (WTMP): 90.0 °F
5-day plot - Wind Speed at 10 Meters Wind Speed at 10 meters (WSPD10M): 5.8 kts
5-day plot - Wind Speed at 20 Meters Wind Speed at 20 meters (WSPD20M): 5.8 kts
5-day plot -  Wind Speed, Wind Gust and Atmospheric Pressure Combined plot of Wind Speed, Gust, and Air Pressure
NOS Water Level Observation Network Water Level
Previous observations
TIME
(EDT)
5-day plot - Wind Direction
WDIR
 
5-day plot - Wind Speed
WSPD
kts
5-day plot - Wind Gust
GST
kts
5-day plot - Wave Height
WVHT
ft
5-day plot - Dominant Wave Period
DPD
sec
5-day plot - Average Wave Period
APD
sec
5-day plot - Mean Wave Direction
MWD
 
5-day plot - Atmospheric Pressure
PRES
in
5-day plot - Pressure Tendency
PTDY
in
5-day plot - Air Temperature
ATMP
°F
5-day plot - Water Temperature
WTMP
°F
5-day plot - Dew Point
DEWP
°F
5-day plot - Salinity
SAL
psu
5-day plot - Visibility
VIS
nmi
5-day plot - Tide (above MLLW)
TIDE
ft
2024-07-15 09:12 am E 4.1 6.0----30.13- 83.7 90.0----
2024-07-15 09:06 am E 2.9 5.1----30.13- 83.3 90.0----
2024-07-15 09:00 am E 2.9 6.0----30.13+0.04 82.4 90.0----
2024-07-15 08:54 am E 4.1 6.0----30.12- 82.2 90.0----
2024-07-15 08:48 am E 4.1 6.0----30.13- 82.4 90.0----
2024-07-15 08:42 am E 4.1 6.0----30.12- 82.2 90.0----
2024-07-15 08:36 am E 4.1 7.0----30.12- 82.2 90.0----
2024-07-15 08:30 am E 4.1 5.1----30.12- 82.4 90.0----
2024-07-15 08:24 am E 2.9 6.0----30.12- 82.2 89.8----
2024-07-15 08:18 am E 5.1 6.0----30.12- 82.0 89.8----
2024-07-15 08:12 am E 2.9 6.0----30.12- 81.9 90.0----
2024-07-15 08:06 am E 4.1 6.0----30.12- 81.7 89.8----
2024-07-15 08:00 am E 4.1 5.1----30.12+0.04 81.3 89.8----
2024-07-15 07:54 am E 4.1 6.0----30.12- 81.3 89.8----
2024-07-15 07:48 am E 5.1 7.0----30.11- 81.1 90.0----
2024-07-15 07:42 am E 2.9 5.1----30.11- 81.1 90.0----
2024-07-15 07:36 am E 1.9 2.9----30.11- 81.1 89.8----
2024-07-15 07:30 am E 1.9 4.1----30.11- 81.1 89.8----
2024-07-15 07:24 am E 1.9 4.1----30.11- 81.1 89.8----
2024-07-15 07:18 am E 1.9 2.9----30.11- 81.0 89.8----
2024-07-15 07:12 am SE 1.9 4.1----30.11- 81.0 89.8----
2024-07-15 07:06 am SE 2.9 4.1----30.10- 80.8 89.8----
2024-07-15 07:00 amESE 1.9 4.1----30.10+0.01 80.6 89.8----
2024-07-15 06:54 amESE 1.9 5.1----30.10- 80.4 89.8----
2024-07-15 06:48 amESE 1.9 4.1----30.10- 80.4 89.8----
2024-07-15 06:42 am SE 2.9 5.1----30.10- 80.2 89.8----
2024-07-15 06:36 am SE 1.9 4.1----30.09- 80.2 89.8----
2024-07-15 06:30 am SE 2.9 4.1----30.09- 80.1 89.8----
2024-07-15 06:24 am SE 1.9 2.9----30.09- 80.6 89.8----
2024-07-15 06:18 amESE 2.9 4.1----30.09- 80.8 89.8----
2024-07-15 06:12 am SE 2.9 4.1----30.09- 81.0 89.8----
2024-07-15 06:06 am SE 2.9 4.1----30.09- 81.0 89.8----
2024-07-15 06:00 am SE 2.9 4.1----30.09-0.01 81.0 89.8----
2024-07-15 05:54 am SE 1.9 2.9----30.09- 81.0 89.8----
2024-07-15 05:48 am SE 2.9 2.9----30.09- 80.8 89.8----
2024-07-15 05:42 am SE 1.0 1.9----30.09- 81.0 89.8----
2024-07-15 05:36 am SE 1.0 2.9----30.09- 81.1 89.8----
2024-07-15 05:30 am SE 1.0 2.9----30.08- 81.0 89.8----
2024-07-15 05:24 am- 0.0 2.9----30.08- 81.0 89.8----
2024-07-15 05:18 amSSE 1.0 4.1----30.08- 81.1 89.8----
2024-07-15 05:12 am SE 2.9 4.1----30.08- 80.8 89.8----
2024-07-15 05:06 amSSE 1.9 2.9----30.08- 80.8 90.0----
2024-07-15 05:00 am SE 1.9 4.1----30.08-0.04 80.6 89.8----
2024-07-15 04:54 amSSE 2.9 4.1----30.08- 80.6 89.8----
2024-07-15 04:48 am SE 1.9 4.1----30.08- 80.6 89.8----
2024-07-15 04:42 am SE 1.9 4.1----30.08- 80.4 89.8----
2024-07-15 04:36 amSSE 1.0 2.9----30.07- 80.4 89.8----
2024-07-15 04:30 am SE 1.0 1.9----30.08- 80.4 90.0----
2024-07-15 04:24 am- 0.0 2.9----30.08- 80.4 89.8----
2024-07-15 04:18 am SE 1.9 2.9----30.08- 80.2 89.8----
2024-07-15 04:12 amESE 1.9 2.9----30.08- 80.2 90.0----
2024-07-15 04:06 amESE 1.9 4.1----30.09- 80.2 89.8----
2024-07-15 04:00 am E 1.9 2.9----30.09-0.04 80.2 89.8----
2024-07-15 03:54 am E 1.9 4.1----30.09- 80.4 89.8----
2024-07-15 03:48 amESE 1.9 5.1----30.09- 80.2 89.8----
2024-07-15 03:42 amESE 2.9 5.1----30.09- 80.2 89.8----
2024-07-15 03:36 am E 2.9 5.1----30.09- 80.1 89.8----
2024-07-15 03:30 am E 2.9 5.1----30.09- 79.9 89.8----
2024-07-15 03:24 am E 2.9 5.1----30.09- 79.9 89.8----
2024-07-15 03:18 am E 1.9 5.1----30.09-- 89.8----
2024-07-15 03:12 am E 2.9 5.1----30.09- 79.9 89.8----
2024-07-15 03:06 amENE 2.9 2.9----30.10- 79.9 89.8----
2024-07-15 03:00 am E 1.9 5.1----30.10-0.01 79.7 89.8----
2024-07-15 02:54 am E 1.9 6.0----30.10- 79.9 89.8----
2024-07-15 02:48 am E 2.9 4.1----30.10- 79.7 89.8----
2024-07-15 02:42 am E 2.9 5.1----30.10- 79.9 89.8----
2024-07-15 02:36 am E 2.9 4.1----30.10- 79.7 89.8----
2024-07-15 02:30 am E 4.1 6.0----30.11- 79.7 89.8----
2024-07-15 02:24 am E 2.9 6.0----30.11- 79.5 89.8----
2024-07-15 02:18 am E 2.9 5.1----30.11- 79.5 89.8----
2024-07-15 02:12 am E 2.9 5.1----30.11- 79.5 89.8----
2024-07-15 02:06 am E 2.9 4.1----30.11- 79.3 89.8----
2024-07-15 02:00 amENE 2.9 5.1----30.12+0.00 79.0 90.0----
2024-07-15 01:54 am E 4.1 5.1----30.12- 79.0 90.0----
2024-07-15 01:48 am E 4.1 5.1----30.12-- 90.0----
2024-07-15 01:42 amESE 2.9 5.1----30.12-- 89.8----
2024-07-15 01:36 am E 4.1 5.1----30.12-- 89.8----
2024-07-15 01:30 am E 2.9 5.1----30.12- 79.0 89.8----
2024-07-15 01:24 am E 4.1 5.1----30.12- 79.0 90.0----
2024-07-15 01:18 am E 4.1 5.1----30.12- 78.8 89.8----
2024-07-15 01:12 am E 4.1 6.0----30.12- 78.8 89.8----
2024-07-15 01:06 am E 4.1 6.0----30.12- 78.8 89.8----
2024-07-15 01:00 am E 5.1 6.0----30.12+0.00 78.8 89.8----
2024-07-15 12:54 am E 2.9 6.0----30.12- 78.8 89.8----
2024-07-15 12:48 amESE 2.9 6.0----30.12- 78.8 89.8----
2024-07-15 12:42 amESE 1.9 2.9----30.12- 78.6 89.8----
2024-07-15 12:36 am E 1.9 4.1----30.12- 78.8 89.8----
2024-07-15 12:30 amESE 1.9 5.1----30.12-- 89.8----
2024-07-15 12:24 am SE 1.9 5.1----30.11-- 89.6----
2024-07-15 12:18 amESE 2.9 5.1----30.11- 78.8 89.6----
2024-07-15 12:12 am SE 1.9 2.9----30.11- 78.6 89.8----
2024-07-15 12:06 amESE 1.9 4.1----30.11- 78.6 89.8----
2024-07-15 12:00 amESE 1.9 5.1----30.11-0.05 78.8 89.6----
2024-07-14 11:54 pmESE 2.9 6.0----30.11- 79.0 89.8----
2024-07-14 11:48 pmESE 2.9 5.1----30.11- 79.0 89.6----
2024-07-14 11:42 pmESE 1.0 5.1----30.11- 79.3 89.6----
2024-07-14 11:36 pm E 4.1 6.0----30.11- 79.3 89.6----
2024-07-14 11:30 pmESE 4.1 5.1----30.10- 79.2 89.6----
2024-07-14 11:24 pm E 4.1 6.0----30.11- 79.3 89.6----
2024-07-14 11:18 pm E 4.1 5.1----30.11- 79.2 89.6----
2024-07-14 11:12 pmESE 2.9 5.1----30.11- 79.0 89.6----
2024-07-14 11:06 pm E 1.9 2.9----30.11- 78.8 89.8----
2024-07-14 11:00 pm E 1.0 1.9----30.11-0.05 78.8-----
2024-07-14 10:54 pm- 0.0 1.0----30.11- 79.0-----
2024-07-14 10:48 pm-------30.11- 79.0 90.0----
2024-07-14 10:42 pm-------30.11- 78.8 90.0----
2024-07-14 10:36 pm-------30.11- 78.6 90.0----
2024-07-14 10:30 pm E 4.1 8.0----30.11- 78.4 90.0----
2024-07-14 10:24 pm E 5.1 8.0----30.11- 78.4 90.0----
2024-07-14 10:18 pm E 8.0 9.9----30.11- 78.3 90.0----
2024-07-14 10:12 pm E 6.0 8.9----30.11- 78.4 90.0----
2024-07-14 10:06 pm E 6.0 8.9----30.12- 78.3 90.0----
2024-07-14 10:00 pm E 5.1 8.9----30.12-0.05 78.1 90.0----
2024-07-14 09:54 pm E 7.0 8.9----30.13- 78.3 90.0----
2024-07-14 09:48 pm E 6.0 8.9----30.14- 78.1 90.1----
2024-07-14 09:42 pm E 6.0 8.0----30.14- 77.9 90.1----
2024-07-14 09:36 pm E 5.1 7.0----30.14- 77.7 90.3----
2024-07-14 09:30 pmENE 6.0 8.9----30.14- 77.7 90.3----
2024-07-14 09:24 pmENE 7.0 8.9----30.14- 77.7 90.3----
2024-07-14 09:18 pmENE 6.0 9.9----30.15-- 90.3----
2024-07-14 09:12 pm NE 6.0 11.1----30.15-- 90.3----
2024-07-14 09:06 pm NE 8.9 12.0----30.15-- 90.3----
2024-07-14 09:00 pmENE 9.9 12.0----30.16+0.07 77.4 90.5----
2024-07-14 08:54 pm NE 8.0 11.1----30.16- 77.4 90.7----
2024-07-14 08:48 pm NE 8.0 11.1----30.17-- 90.7----
2024-07-14 08:42 pmNNE 6.0 8.9----30.17-- 90.7----
2024-07-14 08:36 pmNNE 6.0 9.9----30.17-- 90.7----
2024-07-14 08:30 pmNNE 6.0 9.9----30.17- 76.8 90.7----
2024-07-14 08:24 pmNNE 7.0 8.9----30.16- 75.9 90.7----
2024-07-14 08:18 pm N 5.1 8.0----30.16-- 90.7----
2024-07-14 08:12 pmNNE 5.1 8.9----30.16-- 90.7----
2024-07-14 08:06 pm N 6.0 8.0----30.16-- 90.7----
2024-07-14 08:00 pm N 6.0 8.9----30.16+0.07- 90.7----
2024-07-14 07:54 pmNNE 7.0 8.9----30.16-- 90.7----
2024-07-14 07:48 pm NE 6.0 7.0----30.17- 76.8 90.7----
2024-07-14 07:42 pm NE 5.1 7.0----30.17- 76.6 90.5----
2024-07-14 07:36 pm NE 5.1 7.0----30.17- 76.5 90.1----
2024-07-14 07:30 pm NE 6.0 11.1----30.17-- 90.7----
2024-07-14 07:24 pm NE 8.0 11.1----30.18-- 90.7----
2024-07-14 07:18 pmENE 9.9 15.0----30.18- 74.3 90.7----
2024-07-14 07:12 pmENE 8.9 11.1----30.18- 75.0 90.5----
2024-07-14 07:06 pmESE 2.9 8.9----30.18- 75.9 90.7----
2024-07-14 07:00 pm SE 6.0 9.9----30.18+0.07 77.2 90.7----
2024-07-14 06:54 pm S 8.9 17.1----30.17- 78.4 90.9----
2024-07-14 06:48 pmSSE 8.0 15.0----30.16- 76.6 90.9----
2024-07-14 06:42 pm SE 13.0 22.0----30.16- 77.7 91.0----
2024-07-14 06:36 pmESE 9.9 18.1----30.14- 79.9 91.0----
2024-07-14 06:30 pmESE 11.1 17.1----30.13- 82.9 91.2----
2024-07-14 06:24 pmSSE 8.0 14.0----30.12- 83.7 91.2----
2024-07-14 06:18 pmSSE 8.0 11.1----30.12- 84.0 91.4----
2024-07-14 06:12 pm SE 7.0 11.1----30.11- 84.2 91.6----
2024-07-14 06:06 pm E 5.1 9.9----30.11- 87.3 91.8----
2024-07-14 06:00 pm NW 4.1 8.9----30.09-0.04- 91.9----
2024-07-14 05:54 pmWNW 7.0 8.9----30.08-- 91.9----
2024-07-14 05:48 pm NW 8.0 11.1----30.09- 90.0 91.9----
2024-07-14 05:42 pmWNW 6.0 11.1----30.09- 90.7 91.9----
2024-07-14 05:36 pmWNW 7.0 11.1----30.09- 90.5 92.1----
2024-07-14 05:30 pmWNW 6.0 8.9----30.10-- 92.1----
2024-07-14 05:24 pm W 7.0 9.9----30.09-- 92.1----
2024-07-14 05:18 pmWNW 7.0 9.9----30.09- 90.1 92.3----
2024-07-14 05:12 pm W 6.0 9.9----30.09- 89.4 92.5----
2024-07-14 05:06 pmWNW 7.0 11.1----30.09- 89.6 92.5----
2024-07-14 05:00 pmWNW 7.0 11.1----30.09-0.05 89.4 92.3----
2024-07-14 04:54 pmWNW 8.9 11.1----30.09- 89.1 92.5----
2024-07-14 04:48 pmWNW 8.0 12.0----30.10- 88.7 92.3----
2024-07-14 04:42 pm NW 6.0 12.0----30.10- 88.9 92.1----
2024-07-14 04:36 pmWNW 8.9 12.0----30.11- 89.1 92.1----
2024-07-14 04:30 pm W 8.0 9.9----30.11- 89.8 92.1----
2024-07-14 04:24 pm W 7.0 9.9----30.11- 90.7 92.1----
2024-07-14 04:18 pm W 1.9 2.9----30.10-- 92.1----
2024-07-14 04:12 pm S 1.9 4.1----30.10-- 92.1----
2024-07-14 04:06 pmSSE 2.9 4.1----30.11-- 92.1----
2024-07-14 04:00 pm SE 1.9 2.9----30.11-- 91.9----
2024-07-14 03:54 pm SE 1.0 2.9----30.11-- 91.8----
2024-07-14 03:48 pmSSE 1.9 2.9----30.11- 91.4 91.6----
2024-07-14 03:42 pm S 1.9 4.1----30.11- 91.2 91.6----
2024-07-14 03:36 pm S 2.9 4.1----30.11- 91.8 91.4----
2024-07-14 03:30 pm S 1.9 2.9----30.11-- 91.2----
2024-07-14 03:24 pm SE 1.9 2.9----30.11-- 91.2----
2024-07-14 03:18 pm S 1.0 4.1----30.12- 94.1 91.4----
2024-07-14 03:12 pm S 2.9 5.1----30.13- 93.2 91.2----
2024-07-14 03:06 pmSSE 1.9 4.1----30.13- 93.7 91.0----
2024-07-14 03:00 pmSSE 1.9 4.1----30.13-0.04 93.0 91.0----
2024-07-14 02:54 pm E 2.9 5.1----30.14- 93.0 91.0----
2024-07-14 02:48 pm E 1.9 5.1----30.13- 93.2 91.0----
2024-07-14 02:42 pmENE 4.1 5.1----30.14- 92.5 91.0----
2024-07-14 02:36 pm E 2.9 5.1----30.15- 92.8 91.0----
2024-07-14 02:30 pmENE 2.9 5.1----30.14-- 90.9----
2024-07-14 02:24 pm NE 4.1 5.1----30.14-- 90.9----
2024-07-14 02:18 pmENE 1.9 5.1----30.14-------
2024-07-14 02:12 pmENE 1.9 4.1----30.15-------
2024-07-14 02:06 pm NE 2.9 4.1----30.15-------
2024-07-14 02:00 pm E 1.9 4.1----30.14-0.03 91.9 90.7----
2024-07-14 01:54 pm NE 2.9 5.1----30.15- 90.9 90.5----
2024-07-14 01:48 pmENE 1.9 6.0----30.15-- 90.5----
2024-07-14 01:42 pmENE 4.1 6.0----30.16-- 90.3----
2024-07-14 01:36 pmENE 4.1 6.0----30.16-- 90.1----
2024-07-14 01:30 pmENE 5.1 6.0----30.16-- 90.1----
2024-07-14 01:24 pm NE 5.1 6.0----30.16-- 90.1----
2024-07-14 01:18 pm NE 4.1 7.0----30.16- 90.7 90.0----
2024-07-14 01:12 pmENE 4.1 6.0----30.17- 90.3 89.8----
2024-07-14 01:06 pm NE 4.1 6.0----30.17- 90.1 89.8----
2024-07-14 01:00 pm NE 4.1 6.0------ 89.8 89.8----
2024-07-14 12:54 pmENE 5.1 6.0------ 89.1 90.0----
2024-07-14 12:48 pm NE 4.1 5.1----30.17- 89.2 89.8----
2024-07-14 12:42 pmENE 2.9 5.1----30.18- 88.3 89.6----
2024-07-14 12:36 pm NE 2.9 5.1----30.18- 88.0 89.4----
2024-07-14 12:30 pm NE 4.1 5.1----30.18- 88.0 89.4----
2024-07-14 12:24 pmENE 2.9 5.1----30.18- 88.0 89.4----
2024-07-14 12:18 pm-------30.18- 88.2 89.4----
2024-07-14 12:12 pm-------30.18- 87.4 89.4----
2024-07-14 12:06 pm-------30.18- 87.4 89.4----
2024-07-14 12:00 pm E 1.9 4.1----30.18+0.01 88.5 89.4----
2024-07-14 11:54 am E 2.9 5.1----30.17- 88.2 89.4----
2024-07-14 11:48 am E 2.9 5.1----30.18-- 89.4----
2024-07-14 11:42 am E 4.1 5.1----30.17-- 89.6----
2024-07-14 11:36 amESE 2.9 5.1----30.17-- 89.6----
2024-07-14 11:30 am E 1.9 2.9----30.17- 87.6 89.6----
2024-07-14 11:24 am E 2.9 4.1----30.17- 87.4 89.6----
2024-07-14 11:18 amESE 2.9 4.1----30.17- 86.7 89.6----
2024-07-14 11:12 am E 1.9 4.1----30.17- 87.3 89.4----
2024-07-14 11:06 amENE 2.9 4.1----30.17- 86.9 89.4----
2024-07-14 11:00 amENE 2.9 5.1----30.17+0.02 87.3 89.4----
2024-07-14 10:54 am E 2.9 5.1----30.17- 86.5 89.4----
2024-07-14 10:48 am E 2.9 5.1------ 86.2 89.2----
2024-07-14 10:42 am E 4.1 5.1------ 86.0 89.2----
2024-07-14 10:36 amENE 2.9 5.1------ 86.2 89.2----
2024-07-14 10:30 amENE 1.9 5.1----30.17- 86.4 89.2----
2024-07-14 10:24 amENE 2.9 4.1----30.17- 85.6 89.2----
2024-07-14 10:18 am E 1.9 5.1----30.17- 85.8 89.2----
2024-07-14 10:12 am SE 1.0 4.1----30.17- 86.2 89.2----
2024-07-14 10:06 am E 1.9 4.1----30.17- 85.6 89.2----
2024-07-14 10:00 am-------30.17+0.02 85.6 89.2----
2024-07-14 09:54 am-------30.17- 85.6 89.2----
2024-07-14 09:48 am SE 1.9 2.9----30.17- 85.5 89.2----
2024-07-14 09:42 am SE 2.9 4.1----30.17- 84.9 89.2----
2024-07-14 09:36 amESE 1.9 2.9----30.17- 84.9 89.2----
2024-07-14 09:30 am E 1.9 4.1----30.17- 84.6 89.2----
2024-07-14 09:24 amESE 1.9 4.1----30.17- 84.6 89.2----
2024-07-14 09:18 amESE 1.9 2.9----30.17-- 89.2----
2024-07-14 09:12 amESE 1.9 4.1----30.17-- 89.4----
2024-07-14 09:06 amESE 2.9 5.1----30.17-- 89.4----
2024-07-14 09:00 amESE 1.9 4.1----30.17+0.02 83.7 89.4----
2024-07-14 08:54 amESE 1.9 5.1----30.17- 83.5 89.4----